1520085600.29,44622,10.56,71118.3,-10.05,-44.67,-44.21,0,*60
1520085601.5,44623,10.56,71084.5,-10.05,-44.61,-44.61,0,*63
1520085602.79,44624,10.56,71112.0,-10.03,-43.09,-43.09,0,*62
1520085604.03,44625,10.56,71084.3,-10.03,-43.35,-43.87,0,*6A
1520085605.32,44626,10.63,71098.3,-10.03,-44.73,-44.73,0,*60
1520085606.56,44627,10.56,71116.5,-10.03,-44.41,-44.61,0,*63
1520085607.79,44628,10.56,71090.0,-10.01,-45.33,-45.27,0,*69
1520085609.07,44629,10.56,71104.5,-10.01,-45.27,-44.93,0,*63
1520085610.31,44630,10.56,71100.5,-10.03,-44.53,-44.41,0,*64
1520085611.54,44631,10.63,71112.8,-10.01,-45.33,-45.27,0,*61
1520085612.77,44632,10.56,71086.0,-9.99,-46.21,-46.21,0,*5E
1520085614.01,44633,10.56,71108.5,-10.01,-45.73,-45.61,0,*65
1520085615.25,44634,10.63,71108.5,-10.01,-45.53,-45.47,0,*64
1520085616.52,44635,10.63,71100.3,-9.99,-45.27,-45.13,0,*5E
1520085617.76,44636,10.56,71108.0,-10.01,-45.27,-45.13,0,*64
1520085619.02,44637,10.56,71104.8,-9.99,-44.87,-44.67,0,*55
1520085620.28,44638,10.56,71098.0,-10.01,-44.93,-44.67,0,*66
1520085621.54,44639,10.56,71102.8,-9.99,-45.47,-45.33,0,*56
1520085622.79,44640,10.56,71108.3,-10.01,-44.87,-44.93,0,*67
1520085624.05,44641,10.63,71114.5,-9.99,-45.13,-44.93,0,*53
1520085625.33,44642,10.63,71128.3,-9.99,-44.73,-44.67,0,*5C
1520085626.55,44643,10.63,71128.5,-9.97,-44.27,-44.27,0,*56
1520085627.77,44644,10.56,71132.5,-9.97,-44.87,-44.87,0,*51
1520085629.03,44645,10.56,71140.0,-9.95,-45.07,-44.87,0,*5B
1520085630.29,44646,10.56,71150.0,-9.97,-45.47,-45.27,0,*55
1520085631.52,44647,10.56,71136.3,-9.97,-45.41,-45.07,0,*50
1520085632.75,44648,10.63,71134.3,-9.95,-45.53,-45.41,0,*5C
1520085633.98,44649,10.56,71132.0,-9.95,-45.95,-45.67,0,*53
1520085635.19,44650,10.63,71134.3,-9.97,-45.53,-45.41,0,*57
1520085636.4,44651,10.63,71126.8,-9.97,-45.95,-45.87,0,*56
1520085637.66,44652,10.63,71102.8,-9.97,-45.47,-45.27,0,*50
1520085638.91,44653,10.63,71104.0,-9.95,-45.07,-44.87,0,*5C
1520085640.15,44654,10.56,71098.3,-9.97,-44.99,-44.67,0,*51
1520085641.42,44655,10.56,71084.8,-9.95,-45.47,-45.27,0,*55
1520085642.67,44656,10.63,71026.0,-9.95,-45.67,-45.47,0,*52
1520085643.93,44657,10.56,71044.3,-9.95,-44.67,-44.41,0,*55
1520085645.14,44658,10.56,71094.5,-9.97,-44.41,-43.75,0,*5C
1520085646.37,44659,10.63,71074.5,-9.95,-44.27,-43.01,0,*5C
1520085647.61,44660,10.63,71128.3,-9.97,-44.13,-43.01,0,*53
1520085648.87,44661,10.56,71124.0,-9.91,-43.75,-43.09,0,*5B
1520085650.08,44662,10.56,71120.3,-9.89,-42.75,-42.89,0,*59
1520085651.3,44663,10.56,71112.0,-9.89,-43.55,-43.87,0,*54
1520085652.56,44664,10.63,71100.3,-9.91,-43.67,-44.07,0,*54
1520085653.8,44665,10.63,71110.3,-9.89,-44.21,-44.41,0,*5B
1520085655.05,44666,10.63,71098.5,-9.91,-44.41,-44.73,0,*56
1520085656.29,44667,10.63,71102.5,-9.89,-43.49,-43.67,0,*53
1520085657.5,44668,10.56,71116.3,-9.89,-43.49,-43.75,0,*5F
1520085658.76,44669,10.63,71102.0,-9.87,-44.53,-44.73,0,*5D
1520085660.03,44670,10.56,71098.3,-9.87,-45.73,-45.81,0,*5A
1520085661.3,44671,10.56,71142.0,-9.87,-45.73,-45.81,0,*5B
1520085662.51,44672,10.56,71130.5,-9.89,-48.41,-48.41,0,*5B
1520085663.76,44673,10.63,71130.8,-9.91,-47.71,-47.57,0,*57
1520085665.02,44674,10.63,71112.3,-9.95,-47.85,-47.79,0,*53
1520085666.28,44675,10.56,71118.0,-9.99,-46.61,-46.21,0,*59
1520085667.53,44676,10.56,71112.3,-9.99,-46.35,-46.01,0,*59
1520085668.79,44677,10.56,71116.8,-9.99,-46.61,-46.55,0,*58
1520085670.05,44678,10.63,71124.5,-10.01,-47.03,-47.03,0,*69
1520085671.26,44679,10.63,71128.5,-10.01,-47.65,-47.31,0,*69
1520085672.5,44680,10.63,71120.0,-10.01,-47.51,-47.45,0,*6B
1520085673.74,44681,10.63,71124.8,-10.03,-47.99,-47.99,0,*6D
1520085674.98,44682,10.56,71138.3,-10.05,-47.45,-47.17,0,*6F
1520085676.23,44683,10.63,71142.8,-10.05,-46.89,-46.97,0,*66
1520085677.5,44684,10.56,71140.8,-10.05,-47.45,-47.45,0,*6E
1520085678.79,44685,10.63,71146.3,-10.07,-47.79,-47.45,0,*62
1520085680.06,44686,10.63,71138.5,-10.09,-47.03,-47.03,0,*60
1520085681.3,44687,10.56,71102.3,-10.09,-46.07,-45.87,0,*6A
1520085682.52,44688,10.63,71086.8,-10.09,-45.67,-45.61,0,*68
1520085683.74,44689,10.63,71080.8,-10.09,-45.67,-45.61,0,*69
1520085685.0,44690,10.63,71076.8,-10.09,-46.35,-46.07,0,*66
1520085686.23,44691,10.63,71060.5,-10.07,-45.67,-45.67,0,*68
1520085687.48,44692,10.56,71040.3,-10.09,-45.27,-44.99,0,*61
1520085688.72,44693,10.63,71044.5,-10.09,-44.67,-44.61,0,*62
1520085689.97,44694,10.63,71074.8,-10.07,-44.79,-44.61,0,*64
1520085691.23,44695,10.63,71094.3,-10.07,-45.07,-44.79,0,*64
1520085692.47,44696,10.63,71124.5,-10.03,-43.75,-43.49,0,*64
1520085693.73,44697,10.63,71112.8,-10.05,-44.47,-44.67,0,*6E
1520085694.96,44698,10.56,71088.8,-10.05,-45.73,-45.61,0,*60
1520085696.23,44699,10.56,71094.3,-10.03,-44.53,-44.73,0,*66
1520085697.47,44700,10.56,71070.0,-10.03,-44.79,-44.61,0,*6C
1520085698.74,44701,10.63,71086.0,-10.03,-43.95,-43.29,0,*63
1520085700.01,44702,10.63,71090.0,-10.03,-43.09,-43.35,0,*68
1520085701.25,44703,10.63,71110.5,-10.01,-44.07,-44.01,0,*62
1520085702.5,44704,10.56,71110.3,-9.99,-44.53,-44.47,0,*5F
1520085703.73,44705,10.56,71126.0,-9.99,-43.87,-43.87,0,*5B
1520085705.01,44706,10.63,71118.0,-9.99,-45.73,-45.81,0,*55
1520085706.26,44707,10.63,71128.3,-9.99,-45.95,-45.81,0,*5C
1520085707.5,44708,10.63,71128.8,-10.03,-47.09,-47.09,0,*6D
1520085708.77,44709,10.63,71132.0,-10.01,-47.23,-47.23,0,*6E
1520085710.04,44710,10.63,71130.8,-10.05,-46.49,-46.15,0,*6B
1520085711.28,44711,10.63,71104.8,-10.03,-45.61,-45.13,0,*60
1520085712.53,44712,10.63,71078.8,-10.03,-44.79,-43.95,0,*63
1520085713.74,44713,10.63,71076.0,-10.05,-43.35,-42.51,0,*62
1520085715.0,44714,10.63,71074.3,-10.03,-42.69,-42.89,0,*6E
1520085716.27,44715,10.63,71082.3,-10.03,-43.35,-43.29,0,*6C
1520085717.51,44716,10.63,71096.8,-10.03,-42.51,-42.51,0,*62
1520085718.77,44717,10.63,71104.0,-10.01,-43.21,-43.81,0,*6B
1520085720.02,44718,10.56,71092.5,-10.03,-43.15,-44.13,0,*6D
1520085721.29,44719,10.63,71110.3,-10.03,-43.67,-44.07,0,*6C
1520085722.55,44720,10.56,71112.0,-10.03,-44.13,-44.61,0,*62
1520085723.77,44721,10.63,71088.0,-10.01,-45.13,-45.53,0,*60
1520085724.98,44722,10.56,71080.3,-10.01,-44.53,-44.07,0,*66
1520085726.24,44723,10.56,71094.5,-9.99,-43.81,-43.87,0,*59
1520085727.49,44724,10.63,71106.8,-10.01,-45.27,-45.53,0,*62
1520085728.74,44725,10.63,71090.5,-10.01,-46.21,-46.15,0,*67
1520085729.96,44726,10.63,71048.0,-10.01,-46.01,-45.53,0,*67
1520085731.2,44727,10.56,71054.5,-10.01,-43.81,-43.01,0,*6A
1520085732.46,44728,10.63,71100.0,-10.01,-43.67,-43.81,0,*65
1520085733.71,44729,10.63,71114.5,-10.01,-43.67,-43.41,0,*68
1520085734.97,44730,10.56,71068.3,-10.01,-44.33,-43.81,0,*6A
1520085736.2,44731,10.63,71094.3,-10.01,-43.81,-43.87,0,*63
1520085737.44,44732,10.63,71090.8,-10.03,-44.07,-44.41,0,*66
1520085738.7,44733,10.56,71096.3,-10.03,-43.67,-43.49,0,*69
1520085739.95,44734,10.63,71104.3,-10.01,-43.09,-43.41,0,*6C
1520085741.19,44735,10.63,71102.3,-10.01,-43.49,-43.81,0,*65
1520085742.43,44736,10.63,71102.0,-10.01,-44.21,-44.07,0,*66
1520085743.68,44737,10.63,71088.8,-10.01,-44.21,-44.07,0,*67
1520085744.92,44738,10.63,71088.3,-10.01,-43.87,-43.29,0,*68
1520085746.18,44739,10.63,71092.5,-10.01,-43.21,-43.29,0,*65
1520085747.44,44740,10.63,71098.8,-10.01,-43.67,-43.81,0,*6B
1520085748.71,44741,10.63,71100.5,-10.01,-44.01,-44.01,0,*62
1520085749.98,44742,10.63,71106.0,-9.99,-44.33,-44.67,0,*59
1520085751.22,44743,10.63,71074.8,-10.01,-44.27,-44.67,0,*64
1520085752.48,44744,10.56,71076.0,-10.01,-44.01,-44.33,0,*66
1520085753.74,44745,10.63,71078.0,-9.99,-44.53,-44.67,0,*58
1520085755.02,44746,10.63,71112.5,-9.99,-44.33,-44.33,0,*5C
1520085756.25,44747,10.63,71094.8,-9.99,-46.75,-46.75,0,*5D
1520085757.48,44748,10.63,71048.8,-9.99,-48.07,-47.65,0,*59
1520085758.75,44749,10.63,71042.8,-10.01,-44.73,-44.01,0,*6F
1520085759.99,44750,10.56,71036.3,-10.03,-41.87,-41.49,0,*62
1520085761.23,44751,10.56,71060.5,-10.03,-41.73,-42.63,0,*63
1520085762.47,44752,10.63,71072.8,-10.03,-44.41,-45.33,0,*66
1520085763.72,44753,10.63,71096.0,-10.03,-44.27,-44.79,0,*68
1520085764.96,44754,10.63,71104.0,-10.03,-44.07,-43.95,0,*68
1520085766.25,44755,10.63,71094.0,-10.03,-44.13,-44.73,0,*63
1520085767.49,44756,10.63,71080.0,-10.03,-45.13,-45.21,0,*67
1520085768.76,44757,10.56,71076.5,-10.01,-45.07,-44.93,0,*69
1520085770.01,44758,10.63,71068.5,-10.01,-44.87,-44.73,0,*61
1520085771.27,44759,10.63,71090.5,-10.01,-44.67,-44.67,0,*6B
1520085772.52,44760,10.63,71096.0,-10.01,-44.33,-44.47,0,*62
1520085773.74,44761,10.56,71074.3,-10.01,-45.33,-45.61,0,*67
1520085774.97,44762,10.63,71032.5,-10.01,-45.73,-45.53,0,*61
1520085776.24,44763,10.63,71036.5,-10.03,-45.87,-45.81,0,*66
1520085777.47,44764,10.63,71056.5,-10.03,-45.33,-45.21,0,*64
1520085778.74,44765,10.63,71100.0,-10.05,-45.27,-45.27,0,*60
1520085780.03,44766,10.63,71080.8,-10.03,-46.61,-46.41,0,*67
1520085781.3,44767,10.63,71074.5,-10.05,-46.07,-45.73,0,*62
1520085782.51,44768,10.63,71070.8,-10.05,-45.61,-44.79,0,*65
1520085783.75,44769,10.56,71060.8,-10.05,-44.47,-43.75,0,*6A
1520085784.98,44770,10.56,71052.3,-10.05,-43.95,-44.33,0,*6F
1520085786.24,44771,10.56,71074.5,-10.03,-43.67,-44.41,0,*60
1520085787.5,44772,10.63,71082.5,-10.05,-44.13,-44.33,0,*64
1520085788.76,44773,10.63,71084.5,-10.03,-44.33,-44.41,0,*64
1520085790.01,44774,10.63,71088.5,-10.03,-44.07,-43.95,0,*6A
1520085791.24,44775,10.63,71072.0,-10.05,-43.75,-44.13,0,*66
1520085792.51,44776,10.63,71110.0,-10.01,-43.67,-44.01,0,*61
1520085793.73,44777,10.63,71102.5,-10.01,-46.01,-46.35,0,*60
1520085794.97,44778,10.63,71102.8,-10.03,-45.67,-46.01,0,*69
1520085796.24,44779,10.56,71106.5,-10.05,-45.73,-46.15,0,*6E
1520085797.51,44780,10.63,71116.5,-10.05,-45.27,-45.47,0,*6D
1520085798.75,44781,10.63,71128.0,-10.05,-44.87,-45.07,0,*63
1520085799.98,44782,10.63,71120.3,-10.05,-46.75,-47.03,0,*69
1520085801.27,44783,10.63,71144.8,-10.07,-47.03,-47.23,0,*68
1520085802.52,44784,10.63,71150.8,-10.09,-46.35,-46.27,0,*60
1520085803.78,44785,10.63,71120.3,-10.09,-46.35,-46.07,0,*63
1520085805.02,44786,10.63,71100.8,-10.09,-45.73,-45.61,0,*62
1520085806.26,44787,10.63,71118.5,-10.09,-45.67,-45.47,0,*62
1520085807.53,44788,10.63,71116.8,-10.09,-46.49,-46.49,0,*6F
1520085808.78,44789,10.63,71086.3,-10.09,-46.55,-46.27,0,*6B
1520085810.0,44790,10.63,71076.8,-10.09,-45.67,-45.61,0,*60
1520085811.27,44791,10.63,71082.3,-10.13,-46.83,-46.61,0,*60
1520085812.49,44792,10.63,71050.8,-10.09,-46.35,-45.87,0,*6E
1520085813.75,44793,10.63,71048.5,-10.13,-45.13,-44.73,0,*69
1520085815.02,44794,10.63,71042.5,-10.13,-44.73,-44.53,0,*6B
1520085816.29,44795,10.63,71040.0,-10.13,-45.27,-44.87,0,*63
1520085817.58,44796,10.63,71090.3,-10.13,-44.73,-44.67,0,*6E
1520085818.85,44797,10.63,71072.5,-10.09,-44.33,-44.21,0,*62
1520085820.07,44798,10.63,71062.5,-10.09,-44.87,-44.61,0,*66
1520085821.37,44799,10.63,71102.8,-10.07,-45.27,-45.07,0,*63
1520085822.65,44800,10.63,71114.0,-10.07,-44.13,-44.01,0,*6D
1520085823.94,44801,10.63,71106.5,-10.07,-44.21,-44.13,0,*6E
1520085825.18,44802,10.63,71116.0,-10.03,-43.87,-43.87,0,*68
1520085826.44,44803,10.63,71122.3,-10.03,-44.33,-44.27,0,*6C
1520085827.71,44804,10.63,71120.3,-10.03,-44.07,-43.55,0,*6E
1520085828.98,44805,10.63,71134.8,-10.03,-43.09,-43.35,0,*60
1520085830.22,44806,10.63,71146.3,-10.01,-43.67,-43.87,0,*60
1520085831.47,44807,10.63,71146.8,-9.99,-44.07,-44.01,0,*50
1520085832.74,44808,10.63,71144.8,-10.01,-44.21,-44.47,0,*60
1520085833.99,44809,10.63,71140.3,-10.01,-44.87,-44.73,0,*6A
1520085835.22,44810,10.63,71148.0,-10.01,-44.53,-44.47,0,*6C
1520085836.48,44811,10.63,71114.5,-9.99,-44.73,-44.53,0,*53
1520085837.73,44812,10.63,71100.5,-9.99,-45.13,-44.67,0,*50
1520085838.96,44813,10.63,71084.3,-9.97,-44.67,-44.41,0,*59
1520085840.21,44814,10.63,71094.3,-9.97,-43.81,-43.81,0,*5A
1520085841.44,44815,10.56,71104.3,-9.97,-44.61,-44.67,0,*5D
1520085842.67,44816,10.63,71120.0,-9.97,-45.41,-45.47,0,*5E
1520085843.92,44817,10.63,71120.3,-9.95,-45.41,-45.27,0,*5B
1520085845.17,44818,10.63,71098.0,-9.97,-44.67,-44.67,0,*56
1520085846.41,44819,10.63,71070.3,-9.97,-44.67,-44.27,0,*53
1520085847.67,44820,10.63,71048.8,-9.95,-43.41,-41.55,0,*58
1520085848.91,44821,10.63,71078.8,-9.97,-42.69,-43.01,0,*53
1520085850.15,44822,10.63,71114.8,-9.95,-43.35,-44.47,0,*5F
1520085851.36,44823,10.63,71162.5,-9.97,-42.51,-43.15,0,*5F
1520085852.59,44824,10.63,71150.3,-9.97,-43.75,-44.47,0,*5F
1520085853.81,44825,10.63,71116.8,-9.97,-45.21,-45.41,0,*5E
1520085855.03,44826,10.63,71108.8,-9.97,-45.41,-45.47,0,*5D
1520085856.27,44827,10.63,71102.3,-9.97,-46.27,-45.95,0,*50
1520085857.54,44828,10.63,71096.8,-9.97,-45.27,-45.27,0,*55
1520085858.76,44829,10.63,71120.8,-9.97,-44.27,-44.27,0,*54
1520085860.0,44830,10.63,71106.3,-9.97,-45.07,-44.87,0,*55
1520085861.24,44831,10.63,71088.0,-9.97,-46.35,-46.15,0,*5F
1520085862.47,44832,10.63,71088.8,-9.97,-45.41,-45.27,0,*5E
1520085863.69,44833,10.63,71062.3,-9.97,-43.41,-43.15,0,*5E
1520085864.93,44834,10.63,71066.0,-9.97,-42.75,-42.19,0,*52
1520085866.14,44835,10.63,71100.0,-9.97,-43.61,-43.95,0,*52
1520085867.38,44836,10.63,71128.0,-9.95,-44.27,-44.99,0,*5D
1520085868.61,44837,10.63,71120.8,-9.97,-45.07,-45.67,0,*5D
1520085869.87,44838,10.63,71118.5,-9.99,-45.81,-45.95,0,*5F
1520085871.16,44839,10.63,71104.8,-9.99,-45.07,-44.93,0,*57
1520085872.41,44840,10.63,71134.0,-9.99,-43.87,-44.01,0,*5C
1520085873.62,44841,10.63,71106.8,-9.97,-44.87,-44.99,0,*55
1520085874.86,44842,10.63,71096.3,-9.97,-46.15,-45.95,0,*52
1520085876.12,44843,10.63,71100.8,-9.99,-45.33,-45.27,0,*53
1520085877.38,44844,10.63,71116.0,-9.99,-44.87,-44.67,0,*5F
1520085878.64,44845,10.63,71136.3,-9.99,-45.07,-44.87,0,*59
1520085879.85,44846,10.63,71118.8,-9.97,-45.95,-45.87,0,*5E
1520085881.06,44847,10.63,71090.0,-9.97,-46.55,-46.35,0,*5A
1520085882.32,44848,10.63,71096.0,-9.97,-46.15,-45.73,0,*50
1520085883.55,44849,10.63,71098.8,-9.97,-45.73,-45.53,0,*50
1520085884.84,44850,10.63,71098.8,-9.99,-44.93,-44.73,0,*5A
1520085886.1,44851,10.63,71088.8,-9.99,-45.13,-45.07,0,*50
1520085887.36,44852,10.63,71092.8,-9.99,-44.87,-44.73,0,*5D
1520085888.57,44853,10.63,71106.0,-9.97,-44.61,-44.27,0,*5B
1520085889.81,44854,10.63,71102.0,-9.97,-45.21,-45.07,0,*5A
1520085891.02,44855,10.63,71118.3,-9.97,-45.53,-45.41,0,*5C
1520085892.29,44856,10.63,71102.8,-9.97,-46.15,-46.07,0,*5F
1520085893.53,44857,10.63,71098.8,-9.97,-46.69,-46.35,0,*54
1520085894.8,44858,10.63,71098.5,-9.99,-46.89,-46.75,0,*5F
1520085896.04,44859,10.63,71092.5,-9.99,-46.21,-46.01,0,*5F
1520085897.29,44860,10.63,71086.8,-9.99,-45.33,-45.27,0,*52
1520085898.57,44861,10.63,71088.8,-9.99,-46.41,-46.15,0,*57
1520085899.79,44862,10.63,71108.3,-10.01,-46.55,-46.21,0,*6F
1520085901.01,44863,10.63,71082.5,-10.01,-46.21,-46.01,0,*6F
1520085902.24,44864,10.63,71080.0,-10.01,-46.83,-46.75,0,*63
1520085903.48,44865,10.63,71090.5,-10.01,-46.61,-46.35,0,*6A
1520085904.75,44866,10.63,71102.5,-10.01,-46.41,-46.15,0,*69
1520085906.04,44867,10.63,71090.3,-10.03,-46.49,-46.27,0,*63
1520085907.28,44868,10.63,71116.8,-10.03,-47.17,-46.97,0,*6D
1520085908.55,44869,10.63,71110.5,-10.05,-47.23,-46.89,0,*62
1520085909.78,44870,10.63,71102.5,-10.05,-46.07,-45.67,0,*6E
1520085910.99,44871,10.63,71092.5,-10.05,-45.41,-44.99,0,*6E
1520085912.24,44872,10.63,71090.3,-10.05,-44.67,-44.47,0,*6B
1520085913.48,44873,10.63,71090.0,-10.05,-44.41,-44.13,0,*6F
1520085914.72,44874,10.63,71124.8,-10.03,-44.27,-44.53,0,*6A
1520085916.01,44875,10.63,71094.8,-10.03,-44.93,-44.73,0,*66
1520085917.27,44876,10.63,71076.8,-10.03,-45.33,-44.93,0,*60
1520085918.53,44877,10.63,71060.8,-10.03,-44.41,-44.33,0,*6F
1520085919.78,44878,10.63,71060.5,-10.03,-44.27,-43.95,0,*6B
1520085921.04,44879,10.63,71064.3,-10.01,-44.73,-44.67,0,*63
1520085922.33,44880,10.63,71088.8,-9.99,-44.73,-45.47,0,*5F
1520085923.57,44881,10.63,71104.5,-10.01,-45.47,-45.33,0,*62
1520085924.81,44882,10.63,71110.5,-10.01,-46.15,-45.95,0,*69
1520085926.07,44883,10.63,71060.3,-10.01,-46.35,-46.15,0,*61
1520085927.36,44884,10.63,71052.5,-10.03,-46.49,-46.07,0,*6C
1520085928.6,44885,10.63,71074.5,-10.03,-45.67,-45.67,0,*67
1520085929.87,44886,10.63,71088.5,-10.03,-46.27,-46.01,0,*60
1520085931.11,44887,10.63,71082.5,-10.03,-45.87,-45.61,0,*6D
1520085932.41,44888,10.63,71088.0,-10.03,-44.93,-44.73,0,*64
1520085933.68,44889,10.63,71088.3,-10.03,-44.79,-44.73,0,*61
1520085934.95,44890,10.63,71104.0,-10.03,-43.35,-43.67,0,*64
1520085936.2,44891,10.63,71112.8,-10.01,-43.81,-43.81,0,*60
1520085937.46,44892,10.63,71120.3,-9.99,-44.87,-44.67,0,*54
1520085938.72,44893,10.63,71136.8,-9.99,-45.47,-45.33,0,*58
1520085939.97,44894,10.63,71140.0,-9.99,-45.95,-45.73,0,*54
1520085941.18,44895,10.63,71130.0,-10.01,-45.33,-44.87,0,*6A
1520085942.46,44896,10.63,71114.8,-9.99,-45.47,-45.07,0,*5A
1520085943.68,44897,10.63,71114.3,-10.01,-45.95,-45.61,0,*6D
1520085944.92,44898,10.63,71116.8,-9.99,-44.87,-44.53,0,*59
1520085946.19,44899,10.63,71108.8,-9.99,-44.67,-44.47,0,*53
1520085947.45,44900,10.63,71096.0,-9.99,-44.93,-44.53,0,*5C
1520085948.69,44901,10.63,71086.8,-9.99,-46.01,-45.53,0,*55
1520085949.92,44902,10.63,71094.8,-9.99,-45.13,-44.87,0,*5E
1520085951.21,44903,10.63,71112.0,-9.99,-44.21,-43.81,0,*5E
1520085952.44,44904,10.63,71098.3,-9.97,-43.81,-43.61,0,*54
1520085953.68,44905,10.63,71080.5,-9.97,-45.07,-44.79,0,*53
1520085954.94,44906,10.63,71032.5,-9.95,-45.53,-45.27,0,*59
1520085956.17,44907,10.63,71036.3,-9.95,-44.99,-44.61,0,*5C
1520085957.42,44908,10.63,71076.3,-9.95,-44.79,-44.47,0,*59
1520085958.68,44909,10.63,71088.8,-9.95,-44.79,-44.47,0,*58
1520085959.92,44910,10.63,71080.8,-9.95,-44.79,-44.41,0,*56
1520085961.17,44911,10.63,71078.5,-9.95,-44.79,-44.47,0,*51
1520085962.41,44912,10.63,71052.3,-9.91,-43.95,-43.35,0,*51
1520085963.67,44913,10.63,71080.5,-9.91,-43.75,-43.67,0,*59
1520085964.91,44914,10.63,71082.0,-9.89,-43.15,-43.55,0,*50
1520085966.17,44915,10.63,71102.3,-9.89,-43.55,-44.21,0,*51
1520085967.37,44916,10.63,71088.5,-9.89,-43.95,-44.99,0,*5D
1520085968.64,44917,10.63,71080.8,-9.95,-43.55,-44.47,0,*5E
1520085969.93,44918,10.63,71092.5,-9.91,-43.09,-43.29,0,*53
1520085971.22,44919,10.63,71102.0,-9.91,-41.93,-41.67,0,*5B
1520085972.45,44920,10.63,71126.5,-9.91,-42.51,-41.73,0,*59
1520085973.72,44921,10.63,71122.0,-9.91,-41.67,-40.91,0,*53
1520085974.97,44922,10.63,71070.5,-9.89,-41.55,-41.93,0,*5B
1520085976.2,44923,10.63,71102.5,-9.89,-41.23,-41.49,0,*5C
1520085977.4,44924,10.63,71092.8,-9.89,-40.53,-41.73,0,*54
1520085978.63,44925,10.63,71090.5,-9.89,-40.53,-42.05,0,*57
1520085979.89,44926,10.63,71104.8,-9.87,-41.03,-42.19,0,*53
1520085981.14,44927,10.63,71114.8,-9.85,-40.85,-41.81,0,*5D
1520085982.42,44928,10.63,71112.0,-9.87,-41.67,-43.21,0,*55
1520085983.65,44929,10.63,71110.8,-9.85,-42.05,-43.61,0,*55
1520085984.91,44930,10.63,71118.8,-9.87,-43.01,-44.13,0,*58
1520085986.16,44931,10.63,71118.0,-9.87,-43.49,-43.81,0,*59
1520085987.39,44932,10.63,71134.5,-9.85,-44.07,-44.73,0,*5F
1520085988.65,44933,10.63,71150.5,-9.87,-46.21,-46.61,0,*5B
1520085989.91,44934,10.63,71128.5,-9.87,-48.13,-48.21,0,*59
1520085991.14,44935,10.63,71128.0,-9.91,-48.49,-48.41,0,*56
1520085992.43,44936,10.63,71132.3,-9.95,-47.37,-47.23,0,*5C
1520085993.66,44937,10.63,71138.3,-9.97,-46.75,-46.69,0,*57
1520085994.9,44938,10.63,71132.8,-9.97,-46.35,-46.27,0,*56
1520085996.11,44939,10.63,71114.5,-9.97,-45.95,-45.87,0,*57
1520085997.38,44940,10.63,71110.0,-9.97,-46.27,-46.15,0,*5B
1520085998.66,44941,10.63,71104.0,-9.99,-46.61,-46.61,0,*55
1520085999.93,44942,10.63,71114.0,-9.99,-46.35,-46.15,0,*54
1520086001.18,44943,10.63,71128.5,-9.99,-45.47,-45.33,0,*54
1520086002.47,44944,10.63,71108.8,-9.99,-47.23,-46.89,0,*51
1520086003.69,44945,10.63,71134.3,-10.01,-46.75,-46.83,0,*61
1520086004.91,44946,10.63,71130.5,-10.01,-45.53,-45.33,0,*6D
1520086006.15,44947,10.63,71130.5,-10.01,-47.09,-46.89,0,*63
1520086007.39,44948,10.63,71124.5,-10.01,-47.45,-47.09,0,*6D
1520086008.64,44949,10.63,71104.0,-10.01,-47.03,-46.75,0,*64
1520086009.88,44950,10.63,71086.5,-10.05,-46.55,-46.49,0,*65
1520086011.11,44951,10.63,71086.0,-10.05,-46.07,-45.67,0,*6C
1520086012.33,44952,10.63,71082.8,-10.05,-45.41,-45.87,0,*60
1520086013.54,44953,10.63,71090.5,-10.05,-45.61,-45.67,0,*6D
1520086014.8,44954,10.63,71108.8,-10.07,-45.21,-45.07,0,*6A
1520086016.01,44955,10.63,71104.0,-10.05,-44.99,-44.79,0,*63
1520086017.26,44956,10.63,71086.8,-10.03,-44.79,-44.61,0,*61
1520086018.5,44957,10.63,71114.3,-10.03,-45.13,-44.79,0,*64
1520086019.74,44958,10.63,71092.0,-10.03,-45.21,-44.99,0,*64
1520086020.98,44959,10.63,71080.5,-10.03,-45.53,-45.41,0,*64
1520086022.24,44960,10.63,71116.0,-10.01,-45.47,-45.27,0,*69
1520086023.48,44961,10.63,71110.8,-10.03,-45.21,-44.99,0,*6E
1520086024.72,44962,10.63,71096.5,-10.01,-45.47,-45.13,0,*6C
1520086025.99,44963,10.63,71120.0,-10.01,-45.07,-45.07,0,*6C
1520086027.22,44964,10.63,71094.5,-10.01,-45.33,-45.27,0,*6E
1520086028.46,44965,10.63,71116.0,-10.03,-45.87,-45.87,0,*68
1520086029.7,44966,10.63,71114.8,-10.01,-45.53,-45.47,0,*6C
1520086030.93,44967,10.63,71102.0,-10.01,-45.73,-45.61,0,*6B
1520086032.17,44968,10.63,71100.3,-10.01,-45.33,-45.27,0,*62
1520086033.4,44969,10.63,71118.8,-10.01,-44.47,-44.53,0,*63
1520086034.67,44970,10.63,71088.5,-10.01,-44.93,-45.07,0,*62
1520086035.92,44971,10.63,71124.8,-9.99,-44.53,-44.67,0,*51
1520086037.17,44972,10.63,71120.3,-10.01,-45.13,-44.93,0,*65
1520086038.4,44973,10.63,71116.8,-9.99,-45.61,-45.61,0,*54
1520086039.64,44974,10.63,71138.5,-9.99,-45.95,-45.95,0,*53
1520086040.89,44975,10.63,71138.8,-9.99,-45.73,-45.61,0,*51
1520086042.17,44976,10.63,71128.8,-9.99,-45.47,-45.47,0,*51
1520086043.45,44977,10.63,71116.8,-9.99,-44.93,-44.67,0,*5B
1520086044.69,44978,10.63,71108.8,-10.01,-45.53,-45.47,0,*63
1520086045.91,44979,10.63,71096.3,-10.01,-46.21,-46.01,0,*65
1520086047.19,44980,10.63,71098.5,-9.99,-47.03,-47.03,0,*58
1520086048.45,44981,10.63,71072.0,-9.99,-46.61,-46.55,0,*5E
1520086049.69,44982,10.63,71092.3,-10.01,-45.61,-45.47,0,*67
1520086050.96,44983,10.63,71102.8,-10.01,-45.27,-45.07,0,*60
1520086052.22,44984,10.63,71114.0,-10.01,-45.81,-45.73,0,*68
1520086053.47,44985,10.63,71110.3,-10.01,-45.27,-45.13,0,*63
1520086054.73,44986,10.63,71102.5,-10.01,-44.67,-44.33,0,*66
1520086055.97,44987,10.63,71098.3,-10.01,-44.53,-44.93,0,*6A
1520086057.24,44988,10.63,71120.0,-10.01,-44.67,-44.73,0,*6C
1520086058.52,44989,10.63,71112.8,-9.99,-45.47,-45.27,0,*57
1520086059.78,44990,10.63,71116.0,-10.01,-45.81,-45.73,0,*6D
1520086061.02,44991,10.63,71120.5,-10.01,-46.61,-46.55,0,*66
1520086062.27,44992,10.63,71108.3,-10.01,-46.01,-45.81,0,*69
1520086063.49,44993,10.63,71100.3,-10.01,-45.95,-45.61,0,*68
1520086064.71,44994,10.63,71118.3,-10.01,-45.53,-45.61,0,*65
1520086065.93,44995,10.63,71094.8,-10.01,-46.35,-46.21,0,*60
1520086067.22,44996,10.63,71064.8,-10.03,-46.49,-46.41,0,*6C
1520086068.47,44997,10.63,71074.5,-10.05,-46.15,-45.95,0,*68
1520086069.74,44998,10.63,71100.3,-10.03,-46.89,-46.97,0,*65
1520086070.94,44999,10.63,71100.5,-10.05,-47.17,-47.17,0,*6D
1520086072.19,45000,10.63,71114.5,-10.07,-46.97,-46.97,0,*67
1520086073.45,45001,10.63,71094.5,-10.07,-46.69,-46.75,0,*6B
1520086074.72,45002,10.63,71074.0,-10.07,-47.85,-47.79,0,*66
1520086075.94,45003,10.63,71066.0,-10.09,-46.75,-46.75,0,*6A
1520086077.18,45004,10.63,71064.3,-10.09,-45.73,-45.87,0,*66
1520086078.4,45005,10.63,71100.5,-10.09,-45.61,-45.67,0,*6A
1520086079.66,45006,10.63,71110.0,-10.13,-45.47,-45.67,0,*66
1520086080.93,45007,10.63,71102.0,-10.13,-46.01,-46.15,0,*60
1520086082.2,45008,10.63,71082.5,-10.09,-45.27,-45.07,0,*63
1520086083.47,45009,10.63,71112.0,-10.13,-44.73,-44.53,0,*69
1520086084.74,45010,10.63,71088.0,-10.09,-46.07,-46.27,0,*6A
1520086086.01,45011,10.63,71074.3,-10.07,-45.67,-46.07,0,*62
1520086087.3,45012,10.63,71098.8,-10.13,-44.67,-44.21,0,*63
1520086088.54,45013,10.63,71108.3,-10.15,-44.53,-44.93,0,*6A
1520086089.77,45014,10.63,71090.0,-10.15,-45.33,-45.81,0,*68
1520086091.0,45015,10.63,71102.8,-10.13,-45.13,-45.13,0,*66
1520086092.26,45016,10.63,71118.3,-10.15,-44.13,-44.33,0,*61
1520086093.49,45017,10.63,71122.0,-10.13,-43.87,-43.87,0,*64